START_TIME,STEP,MOV.,M29,t_acc.,H22,t_acc.,H26,t_acc.,H30,t_acc.
1979-07-11 21:00:32.320 ,0,0,0.,24.0,0.,24.0,0.,24.0,0.,24.0
1979-07-11 21:00:56.320 ,0,1,0.,24.0,0.,24.0,0.,24.0,0.,24.0
1979-07-11 21:01:20.320 ,0,0,0.,24.0,0.,24.0,0.,24.0,0.,24.0
1979-07-11 21:01:44.320 ,1,1,0.,24.0,0.,24.0,0.,24.0,0.,24.0
1979-07-11 21:02:08.320 ,1,0,0.,24.0,0.,24.0,0.,24.0,0.,24.0
1979-07-11 21:02:32.320 ,2,1,0.,24.0,0.,24.0,0.,24.0,0.,24.0
1979-07-11 21:02:56.320 ,2,0,0.,24.0,0.,24.0,0.,24.0,0.,24.0
1979-07-11 21:03:20.320 ,3,1,0.,24.0,0.,24.0,0.,24.0,0.,24.0
1979-07-11 21:03:44.320 ,3,0,0.,24.0,0.,24.0,0.,24.0,0.,24.0
1979-07-11 21:04:08.320 ,4,1,0.,24.0,0.,24.0,0.,24.0,0.,24.0
1979-07-11 21:04:32.320 ,4,0,0.,24.0,0.,24.0,0.,24.0,0.,24.0
1979-07-11 21:04:56.320 ,5,1,0.,24.0,0.,24.0,0.,24.0,0.,24.0
1979-07-11 21:05:20.320 ,5,0,0.,24.0,0.,24.0,0.,24.0,0.,24.0
1979-07-11 21:05:44.320 ,6,1,0.,24.0,0.,24.0,0.,24.0,0.,24.0
1979-07-11 21:06:08.320 ,6,0,0.,24.0,0.,24.0,0.,24.0,0.,24.0
1979-07-11 21:06:32.320 ,7,1,0.,24.0,0.,24.0,0.,24.0,0.,24.0
1979-07-11 21:06:56.320 ,7,0,0.,24.0,0.,24.0,0.,24.0,0.,24.0
1979-07-11 21:07:20.320 ,7,1,0.,24.0,0.,24.0,0.,24.0,0.,24.0
1979-07-11 21:07:44.320 ,7,0,0.,24.0,0.,24.0,0.,24.0,0.,24.0
1979-07-11 21:08:08.320 ,6,1,0.,24.0,0.,24.0,0.,24.0,0.,24.0
1979-07-11 21:08:32.320 ,6,0,0.,24.0,0.,24.0,0.,24.0,0.,24.0
1979-07-11 21:08:56.320 ,5,1,0.,24.0,0.,24.0,0.,24.0,0.,24.0
1979-07-11 21:09:20.320 ,5,0,0.,24.0,0.,24.0,0.,24.0,0.,24.0
1979-07-11 21:09:44.320 ,4,1,0.,24.0,0.,24.0,0.,24.0,0.,24.0
1979-07-11 21:10:08.320 ,4,0,0.,24.0,0.,24.0,0.,24.0,0.,24.0
1979-07-11 21:10:32.320 ,3,1,0.,24.0,0.,24.0,0.,24.0,0.,24.0
1979-07-11 21:10:56.320 ,3,0,0.,24.0,0.,24.0,0.,24.0,0.,24.0
1979-07-11 21:11:20.320 ,2,1,0.,24.0,0.,24.0,0.,24.0,0.,24.0
1979-07-11 21:11:44.320 ,2,0,0.,24.0,0.,24.0,0.,24.0,0.,24.0
1979-07-11 21:12:08.320 ,1,1,0.,24.0,0.,24.0,0.,24.0,0.,24.0
1979-07-11 21:12:32.320 ,1,0,0.,24.0,0.,24.0,0.,24.0,0.,24.0
1979-07-11 21:12:56.320 ,0,1,0.,24.0,0.,24.0,0.,24.0,0.,24.0
1979-07-11 21:13:20.320 ,0,0,0.,24.0,0.,24.0,0.,24.0,0.,24.0
1979-07-11 21:13:44.320 ,0,1,0.,24.0,0.,24.0,0.,24.0,0.,24.0
1979-07-11 21:14:08.320 ,0,0,0.,24.0,0.,24.0,0.,24.0,0.,24.0
1979-07-11 21:14:32.320 ,1,1,0.,24.0,0.,24.0,0.,24.0,0.,24.0
1979-07-11 21:14:56.320 ,1,0,0.,24.0,0.,24.0,0.,24.0,0.,24.0
1979-07-11 21:15:20.320 ,2,1,0.,24.0,0.,24.0,0.,24.0,0.,24.0
1979-07-11 21:15:44.320 ,2,0,0.,24.0,0.,24.0,0.,24.0,0.,24.0
1979-07-11 21:16:08.320 ,3,1,0.,24.0,0.,24.0,0.,24.0,0.,24.0
1979-07-11 21:16:32.320 ,3,0,0.,24.0,0.,24.0,0.,24.0,0.,24.0
1979-07-11 21:16:56.320 ,4,1,0.,24.0,0.,24.0,0.,24.0,0.,24.0
1979-07-11 21:17:20.320 ,4,0,0.,24.0,0.,24.0,0.,24.0,0.,24.0
1979-07-11 21:17:44.320 ,5,1,0.,24.0,0.,24.0,0.,24.0,0.,24.0
1979-07-11 21:18:08.320 ,5,0,0.,24.0,0.,24.0,0.,24.0,0.,24.0
1979-07-11 21:18:32.320 ,6,1,0.,24.0,0.,24.0,0.,24.0,0.,24.0
1979-07-11 21:18:56.320 ,6,0,0.,24.0,0.,24.0,0.,24.0,0.,24.0
1979-07-11 21:19:20.320 ,7,1,0.,24.0,0.,24.0,0.,24.0,0.,24.0
1979-07-11 21:19:44.320 ,7,0,0.,24.0,0.,24.0,0.,24.0,0.,24.0
1979-07-11 21:20:08.320 ,7,1,0.,24.0,0.,24.0,0.,24.0,0.,24.0
1979-07-11 21:20:32.320 ,7,0,0.,24.0,0.,24.0,0.,24.0,0.,24.0
1979-07-11 21:20:56.320 ,6,1,0.,24.0,0.,24.0,0.,24.0,0.,24.0
1979-07-11 21:21:20.320 ,6,0,0.,24.0,0.,24.0,0.,24.0,0.,24.0
1979-07-11 21:21:44.320 ,5,1,0.,24.0,0.,24.0,0.,24.0,0.,24.0
1979-07-11 21:22:08.320 ,5,0,0.,24.0,0.,24.0,0.,24.0,0.,24.0
1979-07-11 21:22:32.320 ,4,1,0.,24.0,0.,24.0,0.,24.0,0.,24.0
1979-07-11 21:22:56.320 ,4,0,0.,24.0,0.,24.0,0.,24.0,0.,24.0
1979-07-11 21:23:20.320 ,3,1,0.,24.0,0.,24.0,0.,24.0,0.,24.0
1979-07-11 21:23:44.320 ,3,0,0.,24.0,0.,24.0,0.,24.0,0.,24.0
1979-07-11 21:24:08.320 ,2,1,0.,24.0,0.,24.0,0.,24.0,0.,24.0
1979-07-11 21:24:32.320 ,2,0,0.,24.0,0.,24.0,0.,24.0,0.,24.0
1979-07-11 21:24:56.320 ,1,1,0.,24.0,0.,24.0,0.,24.0,0.,24.0
1979-07-11 21:25:20.320 ,1,0,0.,24.0,0.,24.0,0.,24.0,0.,24.0
1979-07-11 21:25:44.320 ,0,1,0.,24.0,0.,24.0,0.,24.0,0.,24.0
1979-07-11 21:26:08.320 ,0,0,0.,24.0,0.,24.0,0.,24.0,0.,24.0
1979-07-11 21:26:32.320 ,0,1,0.,24.0,0.,24.0,0.,24.0,0.,24.0
1979-07-11 21:26:56.320 ,0,0,0.,24.0,0.,24.0,0.,24.0,0.,24.0
1979-07-11 21:27:20.320 ,1,1,0.,24.0,0.,24.0,0.,24.0,0.,24.0
1979-07-11 21:27:44.320 ,1,0,0.,24.0,0.,24.0,0.,24.0,0.,24.0
1979-07-11 21:28:08.320 ,2,1,0.,24.0,0.,24.0,0.,24.0,0.,24.0
1979-07-11 21:28:32.320 ,2,0,0.,24.0,0.,24.0,0.,24.0,0.,24.0
1979-07-11 21:28:56.320 ,3,1,0.,24.0,0.,24.0,0.,24.0,0.,24.0
1979-07-11 21:29:20.320 ,3,0,0.,24.0,0.,24.0,0.,24.0,0.,24.0
1979-07-11 21:29:44.320 ,4,1,0.,24.0,0.,24.0,0.,24.0,0.,24.0
1979-07-11 21:30:08.320 ,4,0,0.,24.0,0.,24.0,0.,24.0,0.,24.0
1979-07-11 21:30:32.320 ,5,1,0.,24.0,0.,24.0,0.,24.0,0.,24.0
1979-07-11 21:30:56.320 ,5,0,0.,24.0,0.,24.0,0.,24.0,0.,24.0
1979-07-11 21:31:20.320 ,6,1,0.,24.0,0.,24.0,0.,24.0,0.,24.0
1979-07-11 21:31:44.320 ,6,0,0.,24.0,0.,24.0,0.,24.0,0.,24.0
1979-07-11 21:32:08.320 ,7,1,0.,24.0,0.,24.0,0.,24.0,0.,24.0
1979-07-11 21:32:32.320 ,7,0,0.,24.0,0.,24.0,0.,24.0,0.,24.0
1979-07-11 21:32:56.320 ,7,1,0.,24.0,0.,24.0,0.,24.0,0.,24.0
1979-07-11 21:33:20.320 ,7,0,0.,24.0,0.,24.0,0.,24.0,0.,24.0
1979-07-11 21:33:44.320 ,6,1,0.,24.0,0.,24.0,0.,24.0,0.,24.0
1979-07-11 21:34:08.320 ,6,0,0.,24.0,0.,24.0,0.,24.0,0.,24.0
1979-07-11 21:34:32.320 ,5,1,0.,24.0,0.,24.0,0.,24.0,0.,24.0
1979-07-11 21:34:56.320 ,5,0,0.,24.0,0.,24.0,0.,24.0,0.,24.0
1979-07-11 21:35:20.320 ,4,1,0.,24.0,0.,24.0,0.,24.0,0.,24.0
1979-07-11 21:35:44.320 ,4,0,0.,24.0,0.,24.0,0.,24.0,0.,24.0
1979-07-11 21:36:08.320 ,3,1,0.,24.0,0.,24.0,0.,24.0,0.,24.0
1979-07-11 21:36:32.320 ,3,0,0.,24.0,0.,24.0,0.,24.0,0.,24.0
1979-07-11 21:36:56.320 ,2,1,0.,24.0,0.,24.0,0.,24.0,0.,24.0
1979-07-11 21:37:20.320 ,2,0,0.,24.0,0.,24.0,0.,24.0,0.,24.0
1979-07-11 21:37:44.320 ,1,1,0.,24.0,0.,24.0,0.,24.0,0.,24.0
1979-07-11 21:38:08.320 ,1,0,0.,24.0,0.,24.0,0.,24.0,0.,24.0
1979-07-11 21:38:32.320 ,0,1,0.,24.0,0.,24.0,0.,24.0,0.,24.0
1979-07-11 21:38:56.320 ,0,0,0.,24.0,0.,24.0,0.,24.0,0.,24.0
1979-07-11 21:39:20.320 ,0,1,0.,24.0,0.,24.0,0.,24.0,0.,24.0
1979-07-11 21:39:44.320 ,0,0,0.,24.0,0.,24.0,0.,24.0,0.,24.0
1979-07-11 21:40:08.320 ,1,1,0.,24.0,0.,24.0,0.,24.0,0.,24.0
1979-07-11 21:40:32.320 ,1,0,0.,24.0,0.,24.0,0.,24.0,0.,24.0
1979-07-11 21:40:56.320 ,2,1,0.,24.0,0.,24.0,0.,24.0,0.,24.0
1979-07-11 21:41:20.320 ,2,0,0.,24.0,0.,24.0,0.,24.0,0.,24.0
1979-07-11 21:41:44.320 ,3,1,0.,24.0,0.,24.0,0.,24.0,0.,24.0
1979-07-11 21:42:08.320 ,3,0,0.,24.0,0.,24.0,0.,24.0,0.,24.0
1979-07-11 21:42:32.320 ,4,1,0.,24.0,0.,24.0,0.,24.0,0.,24.0
1979-07-11 21:42:56.320 ,4,0,0.,24.0,0.,24.0,0.,24.0,0.,24.0
1979-07-11 21:43:20.320 ,5,1,0.,24.0,0.,24.0,0.,24.0,0.,24.0
1979-07-11 21:43:44.320 ,5,0,0.,24.0,0.,24.0,0.,24.0,0.,24.0
1979-07-11 21:44:08.320 ,6,1,0.,24.0,0.,24.0,0.,24.0,0.,24.0
1979-07-11 21:44:32.320 ,6,0,0.,24.0,0.,24.0,0.,24.0,0.,24.0
1979-07-11 21:44:56.320 ,7,1,0.,24.0,0.,24.0,0.,24.0,0.,24.0
1979-07-11 21:45:20.320 ,7,0,0.,24.0,0.,24.0,0.,24.0,0.,24.0
1979-07-11 21:45:44.320 ,7,1,0.,24.0,0.,24.0,0.,24.0,0.,24.0
1979-07-11 21:46:08.320 ,7,0,0.,24.0,0.,24.0,0.,24.0,0.,24.0
1979-07-11 21:46:32.320 ,6,1,0.,24.0,0.,24.0,0.,24.0,0.,24.0
1979-07-11 21:46:56.320 ,6,0,0.,24.0,0.,24.0,0.,24.0,0.,24.0
1979-07-11 21:47:20.320 ,5,1,0.,24.0,0.,24.0,0.,24.0,0.,24.0
1979-07-11 21:47:44.320 ,5,0,0.,24.0,0.,24.0,0.,24.0,0.,24.0
1979-07-11 21:48:08.320 ,4,1,0.,24.0,0.,24.0,0.,24.0,0.,24.0
1979-07-11 21:48:32.320 ,4,0,0.,24.0,0.,24.0,0.,24.0,0.,24.0
1979-07-11 21:48:56.320 ,3,1,0.,24.0,0.,24.0,0.,24.0,0.,24.0
1979-07-11 21:49:20.320 ,3,0,0.,24.0,0.,24.0,0.,24.0,0.,24.0
1979-07-11 21:49:44.320 ,2,1,0.,24.0,0.,24.0,0.,24.0,0.,24.0
1979-07-11 21:50:08.320 ,2,0,0.,24.0,0.,24.0,0.,24.0,0.,24.0
1979-07-11 21:50:32.320 ,1,1,0.,24.0,0.,24.0,0.,24.0,0.,24.0
1979-07-11 21:50:56.320 ,1,0,0.,24.0,0.,24.0,0.,24.0,0.,24.0
1979-07-11 21:51:20.320 ,0,1,0.,24.0,0.,24.0,0.,24.0,0.,24.0
1979-07-11 21:51:44.320 ,0,0,0.,24.0,0.,24.0,0.,24.0,0.,24.0
1979-07-11 21:52:08.320 ,0,1,0.,24.0,0.,24.0,0.,24.0,0.,24.0
1979-07-11 21:52:32.320 ,0,0,0.,24.0,0.,24.0,0.,24.0,0.,24.0
1979-07-11 21:52:56.320 ,1,1,0.,24.0,0.,24.0,0.,24.0,0.,24.0
1979-07-11 21:53:20.320 ,1,0,0.,24.0,0.,24.0,0.,24.0,0.,24.0
1979-07-11 21:53:44.320 ,2,1,0.,24.0,0.,24.0,0.,24.0,0.,24.0
1979-07-11 21:54:08.320 ,2,0,0.,24.0,0.,24.0,0.,24.0,0.,24.0
1979-07-11 21:54:32.320 ,3,1,0.,24.0,0.,24.0,0.,24.0,0.,24.0
1979-07-11 21:54:56.320 ,3,0,0.,24.0,0.,24.0,0.,24.0,0.,24.0
1979-07-11 21:55:20.320 ,4,1,0.,24.0,0.,24.0,0.,24.0,0.,24.0
1979-07-11 21:55:44.320 ,4,0,0.,24.0,0.,24.0,0.,24.0,0.,24.0
1979-07-11 21:56:08.320 ,5,1,0.,24.0,0.,24.0,0.,24.0,0.,24.0
1979-07-11 21:56:32.320 ,5,0,0.,24.0,0.,24.0,0.,24.0,0.,24.0
1979-07-11 21:56:56.320 ,6,1,0.,24.0,0.,24.0,0.,24.0,0.,24.0
1979-07-11 21:57:20.320 ,6,0,0.,24.0,0.,24.0,0.,24.0,0.,24.0
1979-07-11 21:57:44.320 ,7,1,0.,24.0,0.,24.0,0.,24.0,0.,24.0
1979-07-11 21:58:08.320 ,7,0,0.,24.0,0.,24.0,0.,24.0,0.,24.0
1979-07-11 21:58:32.320 ,7,1,0.,24.0,0.,24.0,0.,24.0,0.,24.0
1979-07-11 21:58:56.320 ,7,0,0.,24.0,0.,24.0,0.,24.0,0.,24.0
1979-07-11 21:59:20.320 ,6,1,0.,24.0,0.,24.0,0.,24.0,0.,24.0
1979-07-11 21:59:44.320 ,6,0,0.,24.0,0.,24.0,0.,24.0,0.,24.0
1979-07-11 22:00:08.320 ,5,1,0.,24.0,0.,24.0,0.,24.0,0.,24.0
1979-07-11 22:00:32.320 ,5,0,0.,24.0,0.,24.0,0.,24.0,0.,24.0
1979-07-11 22:00:56.320 ,4,1,0.,24.0,0.,24.0,0.,24.0,0.,24.0
1979-07-11 22:01:20.320 ,4,0,0.,24.0,0.,24.0,0.,24.0,0.,24.0
1979-07-11 21:00:32.320 ,0,0,0.,24.0,0.,24.0,0.,24.0,0.,24.0
1979-07-11 21:00:56.320 ,0,1,0.,24.0,0.,24.0,0.,24.0,0.,24.0
1979-07-11 21:01:20.320 ,0,0,0.,24.0,0.,24.0,0.,24.0,0.,24.0
1979-07-11 21:01:44.320 ,1,1,0.,24.0,0.,24.0,0.,24.0,0.,24.0
1979-07-11 21:02:08.320 ,1,0,0.,24.0,0.,24.0,0.,24.0,0.,24.0
1979-07-11 21:02:32.320 ,2,1,0.,24.0,0.,24.0,0.,24.0,0.,24.0
1979-07-11 21:02:56.320 ,2,0,0.,24.0,0.,24.0,0.,24.0,0.,24.0
1979-07-11 21:03:20.320 ,3,1,0.,24.0,0.,24.0,0.,24.0,0.,24.0
1979-07-11 21:03:44.320 ,3,0,0.,24.0,0.,24.0,0.,24.0,0.,24.0
1979-07-11 21:04:08.320 ,4,1,0.,24.0,0.,24.0,0.,24.0,0.,24.0
1979-07-11 21:04:32.320 ,4,0,0.,24.0,0.,24.0,0.,24.0,0.,24.0
1979-07-11 21:04:56.320 ,5,1,0.,24.0,0.,24.0,0.,24.0,0.,24.0
1979-07-11 21:05:20.320 ,5,0,0.,24.0,0.,24.0,0.,24.0,0.,24.0
1979-07-11 21:05:44.320 ,6,1,0.,24.0,0.,24.0,0.,24.0,0.,24.0
1979-07-11 21:06:08.320 ,6,0,0.,24.0,0.,24.0,0.,24.0,0.,24.0
1979-07-11 21:06:32.320 ,7,1,0.,24.0,0.,24.0,0.,24.0,0.,24.0
1979-07-11 21:06:56.320 ,7,0,0.,24.0,0.,24.0,0.,24.0,0.,24.0
1979-07-11 21:07:20.320 ,7,1,0.,24.0,0.,24.0,0.,24.0,0.,24.0
1979-07-11 21:07:44.320 ,7,0,0.,24.0,0.,24.0,0.,24.0,0.,24.0
1979-07-11 21:08:08.320 ,6,1,0.,24.0,0.,24.0,0.,24.0,0.,24.0
1979-07-11 21:08:32.320 ,6,0,0.,24.0,0.,24.0,0.,24.0,0.,24.0
1979-07-11 21:08:56.320 ,5,1,0.,24.0,0.,24.0,0.,24.0,0.,24.0
1979-07-11 21:09:20.320 ,5,0,0.,24.0,0.,24.0,0.,24.0,0.,24.0
1979-07-11 21:09:44.320 ,4,1,0.,24.0,0.,24.0,0.,24.0,0.,24.0
1979-07-11 21:10:08.320 ,4,0,0.,24.0,0.,24.0,0.,24.0,0.,24.0
1979-07-11 21:10:32.320 ,3,1,0.,24.0,0.,24.0,0.,24.0,0.,24.0
1979-07-11 21:10:56.320 ,3,0,0.,24.0,0.,24.0,0.,24.0,0.,24.0
1979-07-11 21:11:20.320 ,2,1,0.,24.0,0.,24.0,0.,24.0,0.,24.0
1979-07-11 21:11:44.320 ,2,0,0.,24.0,0.,24.0,0.,24.0,0.,24.0
1979-07-11 21:12:08.320 ,1,1,0.,24.0,0.,24.0,0.,24.0,0.,24.0
1979-07-11 21:12:32.320 ,1,0,0.,24.0,0.,24.0,0.,24.0,0.,24.0
1979-07-11 21:12:56.320 ,0,1,0.,24.0,0.,24.0,0.,24.0,0.,24.0
1979-07-11 21:13:20.320 ,0,0,0.,24.0,0.,24.0,0.,24.0,0.,24.0
1979-07-11 21:13:44.320 ,0,1,0.,24.0,0.,24.0,0.,24.0,0.,24.0
1979-07-11 21:14:08.320 ,0,0,0.,24.0,0.,24.0,0.,24.0,0.,24.0
1979-07-11 21:14:32.320 ,1,1,0.,24.0,0.,24.0,0.,24.0,0.,24.0
1979-07-11 21:14:56.320 ,1,0,0.,24.0,0.,24.0,0.,24.0,0.,24.0
1979-07-11 21:15:20.320 ,2,1,0.,24.0,0.,24.0,0.,24.0,0.,24.0
1979-07-11 21:15:44.320 ,2,0,0.,24.0,0.,24.0,0.,24.0,0.,24.0
1979-07-11 21:16:08.320 ,3,1,0.,24.0,0.,24.0,0.,24.0,0.,24.0
1979-07-11 21:16:32.320 ,3,0,0.,24.0,0.,24.0,0.,24.0,0.,24.0
1979-07-11 21:16:56.320 ,4,1,0.,24.0,0.,24.0,0.,24.0,0.,24.0
1979-07-11 21:17:20.320 ,4,0,0.,24.0,0.,24.0,0.,24.0,0.,24.0
1979-07-11 21:17:44.320 ,5,1,0.,24.0,0.,24.0,0.,24.0,0.,24.0
1979-07-11 21:18:08.320 ,5,0,0.,24.0,0.,24.0,0.,24.0,0.,24.0
1979-07-11 21:18:32.320 ,6,1,0.,24.0,0.,24.0,0.,24.0,0.,24.0
1979-07-11 21:18:56.320 ,6,0,0.,24.0,0.,24.0,0.,24.0,0.,24.0
1979-07-11 21:19:20.320 ,7,1,0.,24.0,0.,24.0,0.,24.0,0.,24.0
1979-07-11 21:19:44.320 ,7,0,0.,24.0,0.,24.0,0.,24.0,0.,24.0
1979-07-11 21:20:08.320 ,7,1,0.,24.0,0.,24.0,0.,24.0,0.,24.0
1979-07-11 21:20:32.320 ,7,0,0.,24.0,0.,24.0,0.,24.0,0.,24.0
1979-07-11 21:20:56.320 ,6,1,0.,24.0,0.,24.0,0.,24.0,0.,24.0
1979-07-11 21:21:20.320 ,6,0,0.,24.0,0.,24.0,0.,24.0,0.,24.0
1979-07-11 21:21:44.320 ,5,1,0.,24.0,0.,24.0,0.,24.0,0.,24.0
1979-07-11 21:22:08.320 ,5,0,0.,24.0,0.,24.0,0.,24.0,0.,24.0
1979-07-11 21:22:32.320 ,4,1,0.,24.0,0.,24.0,0.,24.0,0.,24.0
1979-07-11 21:22:56.320 ,4,0,0.,24.0,0.,24.0,0.,24.0,0.,24.0
1979-07-11 21:23:20.320 ,3,1,0.,24.0,0.,24.0,0.,24.0,0.,24.0
1979-07-11 21:23:44.320 ,3,0,0.,24.0,0.,24.0,0.,24.0,0.,24.0
1979-07-11 21:24:08.320 ,2,1,0.,24.0,0.,24.0,0.,24.0,0.,24.0
1979-07-11 21:24:32.320 ,2,0,0.,24.0,0.,24.0,0.,24.0,0.,24.0
1979-07-11 21:24:56.320 ,1,1,0.,24.0,0.,24.0,0.,24.0,0.,24.0
1979-07-11 21:25:20.320 ,1,0,0.,24.0,0.,24.0,0.,24.0,0.,24.0
1979-07-11 21:25:44.320 ,0,1,0.,24.0,0.,24.0,0.,24.0,0.,24.0
1979-07-11 21:26:08.320 ,0,0,0.,24.0,0.,24.0,0.,24.0,0.,24.0
1979-07-11 21:26:32.320 ,0,1,0.,24.0,0.,24.0,0.,24.0,0.,24.0
1979-07-11 21:26:56.320 ,0,0,0.,24.0,0.,24.0,0.,24.0,0.,24.0
1979-07-11 21:27:20.320 ,1,1,0.,24.0,0.,24.0,0.,24.0,0.,24.0
1979-07-11 21:27:44.320 ,1,0,0.,24.0,0.,24.0,0.,24.0,0.,24.0
1979-07-11 21:28:08.320 ,2,1,0.,24.0,0.,24.0,0.,24.0,0.,24.0
1979-07-11 21:28:32.320 ,2,0,0.,24.0,0.,24.0,0.,24.0,0.,24.0
1979-07-11 21:28:56.320 ,3,1,0.,24.0,0.,24.0,0.,24.0,0.,24.0
1979-07-11 21:29:20.320 ,3,0,0.,24.0,0.,24.0,0.,24.0,0.,24.0
1979-07-11 21:29:44.320 ,4,1,0.,24.0,0.,24.0,0.,24.0,0.,24.0
1979-07-11 21:30:08.320 ,4,0,0.,24.0,0.,24.0,0.,24.0,0.,24.0
1979-07-11 21:30:32.320 ,5,1,0.,24.0,0.,24.0,0.,24.0,0.,24.0
1979-07-11 21:30:56.320 ,5,0,0.,24.0,0.,24.0,0.,24.0,0.,24.0
1979-07-11 21:31:20.320 ,6,1,0.,24.0,0.,24.0,0.,24.0,0.,24.0
1979-07-11 21:31:44.320 ,6,0,0.,24.0,0.,24.0,0.,24.0,0.,24.0
1979-07-11 21:32:08.320 ,7,1,0.,24.0,0.,24.0,0.,24.0,0.,24.0
1979-07-11 21:32:32.320 ,7,0,0.,24.0,0.,24.0,0.,24.0,0.,24.0
1979-07-11 21:32:56.320 ,7,1,0.,24.0,0.,24.0,0.,24.0,0.,24.0
1979-07-11 21:33:20.320 ,7,0,0.,24.0,0.,24.0,0.,24.0,0.,24.0
1979-07-11 21:33:44.320 ,6,1,0.,24.0,0.,24.0,0.,24.0,0.,24.0
1979-07-11 21:34:08.320 ,6,0,0.,24.0,0.,24.0,0.,24.0,0.,24.0
1979-07-11 21:34:32.320 ,5,1,0.,24.0,0.,24.0,0.,24.0,0.,24.0
1979-07-11 21:34:56.320 ,5,0,0.,24.0,0.,24.0,0.,24.0,0.,24.0
1979-07-11 21:35:20.320 ,4,1,0.,24.0,0.,24.0,0.,24.0,0.,24.0
1979-07-11 21:35:44.320 ,4,0,0.,24.0,0.,24.0,0.,24.0,0.,24.0
1979-07-11 21:36:08.320 ,3,1,0.,24.0,0.,24.0,0.,24.0,0.,24.0
1979-07-11 21:36:32.320 ,3,0,0.,24.0,0.,24.0,0.,24.0,0.,24.0
1979-07-11 21:36:56.320 ,2,1,0.,24.0,0.,24.0,0.,24.0,0.,24.0
1979-07-11 21:37:20.320 ,2,0,0.,24.0,0.,24.0,0.,24.0,0.,24.0
1979-07-11 21:37:44.320 ,1,1,0.,24.0,0.,24.0,0.,24.0,0.,24.0
1979-07-11 21:38:08.320 ,1,0,0.,24.0,0.,24.0,0.,24.0,0.,24.0
1979-07-11 21:38:32.320 ,0,1,0.,24.0,0.,24.0,0.,24.0,0.,24.0
1979-07-11 21:38:56.320 ,0,0,0.,24.0,0.,24.0,0.,24.0,0.,24.0
1979-07-11 21:39:20.320 ,0,1,0.,24.0,0.,24.0,0.,24.0,0.,24.0
1979-07-11 21:39:44.320 ,0,0,0.,24.0,0.,24.0,0.,24.0,0.,24.0
1979-07-11 21:40:08.320 ,1,1,0.,24.0,0.,24.0,0.,24.0,0.,24.0
1979-07-11 21:40:32.320 ,1,0,0.,24.0,0.,24.0,0.,24.0,0.,24.0
1979-07-11 21:40:56.320 ,2,1,0.,24.0,0.,24.0,0.,24.0,0.,24.0
1979-07-11 21:41:20.320 ,2,0,0.,24.0,0.,24.0,0.,24.0,0.,24.0
1979-07-11 21:41:44.320 ,3,1,0.,24.0,0.,24.0,0.,24.0,0.,24.0
1979-07-11 21:42:08.320 ,3,0,0.,24.0,0.,24.0,0.,24.0,0.,24.0
1979-07-11 21:42:32.320 ,4,1,0.,24.0,0.,24.0,0.,24.0,0.,24.0
1979-07-11 21:42:56.320 ,4,0,0.,24.0,0.,24.0,0.,24.0,0.,24.0
1979-07-11 21:43:20.320 ,5,1,0.,24.0,0.,24.0,0.,24.0,0.,24.0
1979-07-11 21:43:44.320 ,5,0,0.,24.0,0.,24.0,0.,24.0,0.,24.0
1979-07-11 21:44:08.320 ,6,1,0.,24.0,0.,24.0,0.,24.0,0.,24.0
1979-07-11 21:44:32.320 ,6,0,0.,24.0,0.,24.0,0.,24.0,0.,24.0
1979-07-11 21:44:56.320 ,7,1,0.,24.0,0.,24.0,0.,24.0,0.,24.0
1979-07-11 21:45:20.320 ,7,0,0.,24.0,0.,24.0,0.,24.0,0.,24.0
1979-07-11 21:45:44.320 ,7,1,0.,24.0,0.,24.0,0.,24.0,0.,24.0
1979-07-11 21:46:08.320 ,7,0,0.,24.0,0.,24.0,0.,24.0,0.,24.0
1979-07-11 21:46:32.320 ,6,1,0.,24.0,0.,24.0,0.,24.0,0.,24.0
1979-07-11 21:46:56.320 ,6,0,0.,24.0,0.,24.0,0.,24.0,0.,24.0
1979-07-11 21:47:20.320 ,5,1,0.,24.0,0.,24.0,0.,24.0,0.,24.0
1979-07-11 21:47:44.320 ,5,0,0.,24.0,0.,24.0,0.,24.0,0.,24.0
1979-07-11 21:48:08.320 ,4,1,0.,24.0,0.,24.0,0.,24.0,0.,24.0
1979-07-11 21:48:32.320 ,4,0,0.,24.0,0.,24.0,0.,24.0,0.,24.0
1979-07-11 21:48:56.320 ,3,1,0.,24.0,0.,24.0,0.,24.0,0.,24.0
1979-07-11 21:49:20.320 ,3,0,0.,24.0,0.,24.0,0.,24.0,0.,24.0
1979-07-11 21:49:44.320 ,2,1,0.,24.0,0.,24.0,0.,24.0,0.,24.0
1979-07-11 21:50:08.320 ,2,0,0.,24.0,0.,24.0,0.,24.0,0.,24.0
1979-07-11 21:50:32.320 ,1,1,0.,24.0,0.,24.0,0.,24.0,0.,24.0
1979-07-11 21:50:56.320 ,1,0,0.,24.0,0.,24.0,0.,24.0,0.,24.0
1979-07-11 21:51:20.320 ,0,1,0.,24.0,0.,24.0,0.,24.0,0.,24.0
1979-07-11 21:51:44.320 ,0,0,0.,24.0,0.,24.0,0.,24.0,0.,24.0
1979-07-11 21:52:08.320 ,0,1,0.,24.0,0.,24.0,0.,24.0,0.,24.0
1979-07-11 21:52:32.320 ,0,0,0.,24.0,0.,24.0,0.,24.0,0.,24.0
1979-07-11 21:52:56.320 ,1,1,0.,24.0,0.,24.0,0.,24.0,0.,24.0
1979-07-11 21:53:20.320 ,1,0,0.,24.0,0.,24.0,0.,24.0,0.,24.0
1979-07-11 21:53:44.320 ,2,1,0.,24.0,0.,24.0,0.,24.0,0.,24.0
1979-07-11 21:54:08.320 ,2,0,0.,24.0,0.,24.0,0.,24.0,0.,24.0
1979-07-11 21:54:32.320 ,3,1,0.,24.0,0.,24.0,0.,24.0,0.,24.0
1979-07-11 21:54:56.320 ,3,0,0.,24.0,0.,24.0,0.,24.0,0.,24.0
1979-07-11 21:55:20.320 ,4,1,0.,24.0,0.,24.0,0.,24.0,0.,24.0
1979-07-11 21:55:44.320 ,4,0,0.,24.0,0.,24.0,0.,24.0,0.,24.0
1979-07-11 21:56:08.320 ,5,1,0.,24.0,0.,24.0,0.,24.0,0.,24.0
1979-07-11 21:56:32.320 ,5,0,0.,24.0,0.,24.0,0.,24.0,0.,24.0
1979-07-11 21:56:56.320 ,6,1,0.,24.0,0.,24.0,0.,24.0,0.,24.0
1979-07-11 21:57:20.320 ,6,0,0.,24.0,0.,24.0,0.,24.0,0.,24.0
1979-07-11 21:57:44.320 ,7,1,0.,24.0,0.,24.0,0.,24.0,0.,24.0
1979-07-11 21:58:08.320 ,7,0,0.,24.0,0.,24.0,0.,24.0,0.,24.0
1979-07-11 21:58:32.320 ,7,1,0.,24.0,0.,24.0,0.,24.0,0.,24.0
1979-07-11 21:58:56.320 ,7,0,0.,24.0,0.,24.0,0.,24.0,0.,24.0
1979-07-11 21:59:20.320 ,6,1,0.,24.0,0.,24.0,0.,24.0,0.,24.0
1979-07-11 21:59:44.320 ,6,0,0.,24.0,0.,24.0,0.,24.0,0.,24.0
1979-07-11 22:00:08.320 ,5,1,0.,24.0,0.,24.0,0.,24.0,0.,24.0
1979-07-11 22:00:32.320 ,5,0,0.,24.0,0.,24.0,0.,24.0,0.,24.0
1979-07-11 22:00:56.320 ,4,1,0.,24.0,0.,24.0,0.,24.0,0.,24.0
1979-07-11 22:01:20.320 ,4,0,0.,24.0,0.,24.0,0.,24.0,0.,24.0
1979-07-11 22:01:44.320 ,3,1,0.,24.0,0.,24.0,0.,24.0,0.,24.0
1979-07-11 22:02:08.320 ,3,0,0.,24.0,0.,24.0,0.,24.0,0.,24.0
1979-07-11 22:02:32.320 ,2,1,0.,24.0,0.,24.0,0.,24.0,0.,24.0
1979-07-11 22:02:56.320 ,2,0,0.,24.0,0.,24.0,0.,24.0,0.,24.0
1979-07-11 22:03:20.320 ,1,1,0.,24.0,0.,24.0,0.,24.0,0.,24.0
1979-07-11 22:03:44.320 ,1,0,0.,24.0,0.,24.0,0.,24.0,0.,24.0
1979-07-11 22:04:08.320 ,0,1,0.,24.0,0.,24.0,0.,24.0,0.,24.0
1979-07-11 22:04:32.320 ,0,0,0.,24.0,0.,24.0,0.,24.0,0.,24.0
1979-07-11 22:04:56.320 ,0,1,0.,24.0,0.,24.0,0.,24.0,0.,24.0
1979-07-11 22:05:20.320 ,0,0,0.,24.0,0.,24.0,0.,24.0,0.,24.0
1979-07-11 22:05:44.320 ,1,1,0.,24.0,0.,24.0,0.,24.0,0.,24.0
1979-07-11 22:06:08.320 ,1,0,0.,24.0,0.,24.0,0.,24.0,0.,24.0
1979-07-11 22:06:32.320 ,2,1,0.,24.0,0.,24.0,0.,24.0,0.,24.0
1979-07-11 22:06:56.320 ,2,0,0.,24.0,0.,24.0,0.,24.0,0.,24.0
1979-07-11 22:07:20.320 ,3,1,0.,24.0,0.,24.0,0.,24.0,0.,24.0
1979-07-11 22:07:44.320 ,3,0,0.,24.0,0.,24.0,0.,24.0,0.,24.0
1979-07-11 22:08:08.320 ,4,1,0.,24.0,0.,24.0,0.,24.0,0.,24.0
1979-07-11 22:08:32.320 ,4,0,0.,24.0,0.,24.0,0.,24.0,0.,24.0
1979-07-11 22:08:56.320 ,5,1,0.,24.0,0.,24.0,0.,24.0,0.,24.0
1979-07-11 22:09:20.320 ,5,0,0.,24.0,0.,24.0,0.,24.0,0.,24.0
1979-07-11 22:09:44.320 ,6,1,0.,24.0,0.,24.0,0.,24.0,0.,24.0
1979-07-11 22:10:08.320 ,6,0,0.,24.0,0.,24.0,0.,24.0,0.,24.0
1979-07-11 22:10:32.320 ,7,1,0.,24.0,0.,24.0,0.,24.0,0.,24.0
1979-07-11 22:10:56.320 ,7,0,0.,24.0,0.,24.0,0.,24.0,0.,24.0
1979-07-11 22:11:20.320 ,7,1,0.,24.0,0.,24.0,0.,24.0,0.,24.0
1979-07-11 22:11:44.320 ,7,0,0.,24.0,0.,24.0,0.,24.0,0.,24.0
1979-07-11 22:12:08.320 ,6,1,0.,24.0,0.,24.0,0.,24.0,0.,24.0
1979-07-11 22:12:32.320 ,6,0,0.,24.0,0.,24.0,0.,24.0,0.,24.0
1979-07-11 22:12:56.320 ,5,1,0.,24.0,0.,24.0,0.,24.0,0.,24.0
1979-07-11 22:13:20.320 ,5,0,0.,24.0,0.,24.0,0.,24.0,0.,24.0
1979-07-11 22:13:44.320 ,4,1,0.,24.0,0.,24.0,0.,24.0,0.,24.0
1979-07-11 22:14:08.320 ,4,0,0.,24.0,0.,24.0,0.,24.0,0.,24.0
1979-07-11 22:14:32.320 ,3,1,0.,24.0,0.,24.0,0.,24.0,0.,24.0
1979-07-11 22:14:56.320 ,3,0,0.,24.0,0.,24.0,0.,24.0,0.,24.0
1979-07-11 22:15:20.320 ,2,1,0.,24.0,0.,24.0,0.,24.0,0.,24.0
1979-07-11 22:15:44.320 ,2,0,0.,24.0,0.,24.0,0.,24.0,0.,24.0
1979-07-11 22:16:08.320 ,1,1,0.,24.0,0.,24.0,0.,24.0,0.,24.0
1979-07-11 22:16:32.320 ,1,0,0.,24.0,0.,24.0,0.,24.0,0.,24.0
1979-07-11 22:16:56.320 ,0,1,0.,24.0,0.,24.0,0.,24.0,0.,24.0
1979-07-11 22:17:20.320 ,0,0,0.,24.0,0.,24.0,0.,24.0,0.,24.0
1979-07-11 22:17:44.320 ,0,1,0.,24.0,0.,24.0,0.,24.0,0.,24.0
1979-07-11 22:18:08.320 ,0,0,0.,24.0,0.,24.0,0.,24.0,0.,24.0
1979-07-11 22:18:32.320 ,1,1,0.,24.0,0.,24.0,0.,24.0,0.,24.0
1979-07-11 22:18:56.320 ,1,0,0.,24.0,0.,24.0,0.,24.0,0.,24.0
1979-07-11 22:19:20.320 ,2,1,0.,24.0,0.,24.0,0.,24.0,0.,24.0
1979-07-11 22:19:44.320 ,2,0,0.,24.0,0.,24.0,0.,24.0,0.,24.0
1979-07-11 22:20:08.320 ,3,1,0.,24.0,0.,24.0,0.,24.0,0.,24.0
1979-07-11 22:20:32.320 ,3,0,0.,24.0,0.,24.0,0.,24.0,0.,24.0
1979-07-11 22:20:56.320 ,4,1,0.,24.0,0.,24.0,0.,24.0,0.,24.0
1979-07-11 22:21:20.320 ,4,0,0.,24.0,0.,24.0,0.,24.0,0.,24.0
1979-07-11 22:21:44.320 ,5,1,0.,24.0,0.,24.0,0.,24.0,0.,24.0
1979-07-11 22:22:08.320 ,5,0,0.,24.0,0.,24.0,0.,24.0,0.,24.0
1979-07-11 22:22:32.320 ,6,1,0.,24.0,0.,24.0,0.,24.0,0.,24.0
1979-07-11 22:22:56.320 ,6,0,0.,24.0,0.,24.0,0.,24.0,0.,24.0
1979-07-11 22:23:20.320 ,7,1,0.,24.0,0.,24.0,0.,24.0,0.,24.0
1979-07-11 22:23:44.320 ,7,0,0.,24.0,0.,24.0,0.,24.0,0.,24.0
1979-07-11 22:24:08.320 ,7,1,0.,24.0,0.,24.0,0.,24.0,0.,24.0
1979-07-11 22:24:32.320 ,7,0,0.,24.0,0.,24.0,0.,24.0,0.,24.0
1979-07-11 22:24:56.320 ,6,1,0.,24.0,0.,24.0,0.,24.0,0.,24.0
1979-07-11 22:25:20.320 ,6,0,0.,24.0,0.,24.0,0.,24.0,0.,24.0
1979-07-11 22:25:44.320 ,5,1,0.,24.0,0.,24.0,0.,24.0,0.,24.0
1979-07-11 22:26:08.320 ,5,0,0.,24.0,0.,24.0,0.,24.0,0.,24.0
1979-07-11 22:26:32.320 ,4,1,0.,24.0,0.,24.0,0.,24.0,0.,24.0
1979-07-11 22:26:56.320 ,4,0,0.,24.0,0.,24.0,0.,24.0,0.,24.0
1979-07-11 22:27:20.320 ,3,1,0.,24.0,0.,24.0,0.,24.0,0.,24.0
1979-07-11 22:27:44.320 ,3,0,0.,24.0,0.,24.0,0.,24.0,0.,24.0
1979-07-11 22:28:08.320 ,2,1,0.,24.0,0.,24.0,0.,24.0,0.,24.0
1979-07-11 22:28:32.320 ,2,0,0.,24.0,0.,24.0,0.,24.0,0.,24.0
1979-07-11 22:28:56.320 ,1,1,0.,24.0,0.,24.0,0.,24.0,0.,24.0
1979-07-11 22:29:20.320 ,1,0,0.,24.0,0.,24.0,0.,24.0,0.,24.0
1979-07-11 22:29:44.320 ,0,1,0.,24.0,0.,24.0,0.,24.0,0.,24.0
1979-07-11 22:30:08.320 ,0,0,0.,24.0,0.,24.0,0.,24.0,0.,24.0
1979-07-11 22:30:32.320 ,0,1,0.,24.0,0.,24.0,0.,24.0,0.,24.0
1979-07-11 22:30:56.320 ,0,0,0.,24.0,0.,24.0,0.,24.0,0.,24.0
1979-07-11 22:31:20.320 ,1,1,0.,24.0,0.,24.0,0.,24.0,0.,24.0
1979-07-11 22:31:44.320 ,1,0,0.,24.0,0.,24.0,0.,24.0,0.,24.0
1979-07-11 22:32:08.320 ,2,1,0.,24.0,0.,24.0,0.,24.0,0.,24.0
1979-07-11 22:32:32.320 ,2,0,0.,24.0,0.,24.0,0.,24.0,0.,24.0
1979-07-11 22:32:56.320 ,3,1,0.,24.0,0.,24.0,0.,24.0,0.,24.0
1979-07-11 22:33:20.320 ,3,0,0.,24.0,0.,24.0,0.,24.0,0.,24.0